TimeMDT,TemperatureF,Dew PointF,Humidity,Sea Level PressureIn,VisibilityMPH,Wind Direction,Wind SpeedMPH,Gust SpeedMPH,PrecipitationIn,Events,Conditions,WindDirDegrees,DateUTC
12:51 AM,66.9,19.9,17,29.58,10.0,NW,11.5,-,N/A,,Mostly Cloudy,310,2013-03-22 06:51:00
1:51 AM,64.0,19.9,18,29.59,10.0,Calm,Calm,-,N/A,,Mostly Cloudy,0,2013-03-22 07:51:00
2:51 AM,61.0,19.9,21,29.59,10.0,South,3.5,-,N/A,,Mostly Cloudy,190,2013-03-22 08:51:00
3:51 AM,59.0,21.0,23,29.59,10.0,South,9.2,-,N/A,,Mostly Cloudy,190,2013-03-22 09:51:00
4:51 AM,57.9,21.0,24,29.59,10.0,South,9.2,-,N/A,,Mostly Cloudy,170,2013-03-22 10:51:00
5:51 AM,57.9,21.0,24,29.61,10.0,South,8.1,-,N/A,,Mostly Cloudy,190,2013-03-22 11:51:00
6:51 AM,57.9,23.0,26,29.63,10.0,SW,11.5,-,N/A,,Mostly Cloudy,230,2013-03-22 12:51:00
7:51 AM,61.0,24.1,24,29.64,10.0,WSW,9.2,-,N/A,,Mostly Cloudy,250,2013-03-22 13:51:00
8:51 AM,63.0,24.1,23,29.66,10.0,SSW,10.4,-,N/A,,Mostly Cloudy,210,2013-03-22 14:51:00
9:51 AM,66.9,26.1,21,29.66,10.0,WSW,16.1,-,N/A,,Mostly Cloudy,240,2013-03-22 15:51:00
10:51 AM,70.0,25.0,18,29.65,10.0,WSW,20.7,28.8,N/A,,Mostly Cloudy,240,2013-03-22 16:51:00
11:51 AM,70.0,21.9,16,29.63,10.0,West,25.3,31.1,N/A,,Mostly Cloudy,270,2013-03-22 17:51:00
12:51 PM,75.0,18.0,12,29.60,10.0,WSW,17.3,36.8,N/A,,Mostly Cloudy,240,2013-03-22 18:51:00
1:51 PM,75.0,19.0,12,29.57,10.0,West,19.6,41.4,N/A,,Scattered Clouds,260,2013-03-22 19:51:00
2:51 PM,77.0,21.0,12,29.53,10.0,WSW,19.6,31.1,N/A,,Scattered Clouds,250,2013-03-22 20:51:00
3:51 PM,75.9,23.0,14,29.50,10.0,West,19.6,25.3,N/A,,Mostly Cloudy,270,2013-03-22 21:51:00
4:51 PM,78.1,24.1,14,29.49,10.0,West,18.4,44.9,N/A,,Scattered Clouds,260,2013-03-22 22:51:00
5:51 PM,77.0,25.0,15,29.48,10.0,West,28.8,36.8,N/A,,Partly Cloudy,260,2013-03-22 23:51:00
6:51 PM,75.0,23.0,14,29.50,10.0,West,32.2,36.8,N/A,,Partly Cloudy,260,2013-03-23 00:51:00
7:51 PM,73.9,21.9,14,29.52,10.0,West,27.6,38.0,N/A,,Partly Cloudy,260,2013-03-23 01:51:00
8:51 PM,73.0,19.9,14,29.54,10.0,West,19.6,35.7,N/A,,Partly Cloudy,270,2013-03-23 02:51:00
9:51 PM,71.1,18.0,13,29.58,10.0,West,18.4,31.1,N/A,,Partly Cloudy,260,2013-03-23 03:51:00
10:51 PM,70.0,16.0,13,29.59,10.0,West,19.6,33.4,N/A,,Partly Cloudy,280,2013-03-23 04:51:00
11:51 PM,68.0,14.0,12,29.78,10.0,West,26.5,33.4,N/A,,Partly Cloudy,280,2013-03-23 05:51:00